Location: Corcelles
(46.1547°N, 4.7234°E)
Time: 04:08:26
(UTC+00:00)

Cosmos 2061 Rocket - Pass Details

Date: 14 July 2020
Orbit: 965 x 1014 km, 82.9° (Epoch: 06 August)

Event Time Altitude Azimuth Distance (km) Brightness Sun altitude
Exits shadow 01:41:57 26° 196° (SSW) 1,839 4.9 -17.4°
Maximum altitude 01:45:43 78° 279° (W) 1,019 4.0 -17.1°
Drops below altitude 10° 01:52:03 10° 6° (N) 2,750 7.4 -16.5°
Sets 01:54:34 0° 8° (N) 3,696 8.3 -16.3°
